Tracking 19219 objects as of 18-Jul-2018
HD Live streaming from Space Station
objects crossing your sky now

USA 65

Track USA 65 now!
USA 65 is classified as:


NORAD ID: 20929
Int'l Code: 1990-095A
Perigee: 36,302.3 km
Apogee: 36,355.3 km
Inclination: 15.4 °
Period: 1,463.5 minutes
Semi major axis: 42699 km
RCS: Unknown
Launch date: November 13, 1990
Source: United States (US)
Launch site: AIR FORCE EASTERN TEST RANGE (AFETR)
aabbcc
Your satellite tracking list
Your tracking list is empty




NASA's NSSDC Master Catalog

Two Line Element Set (TLE):
1 20929U 90095A   18184.91252081 0.00000000  00000-0  00000-0 0    08
2 20929  15.4180   7.3297 0006214   7.6336 352.3351  0.98393029    04
Source of the keplerian elements: McCants